�������l�o���
Date,Time,MP-1(��Sv/h),MP-2(��Sv/h),MP-3(��Sv/h),MP-4(��Sv/h),MP-5(��Sv/h),MP-6(��Sv/h),MP-7(��Sv/h),����,����(m/s),���J
2017/07/23,00:00,0.363,0.218,0.370,0.344,0.324,0.179,0.110,��쐼,6.7,��
2017/07/23,00:10,0.362,0.220,0.366,0.342,0.321,0.179,0.109,��쐼,6.3,��
2017/07/23,00:20,0.358,0.221,0.365,0.341,0.324,0.178,0.110,��쐼,4.3,��
2017/07/23,00:30,0.362,0.220,0.369,0.346,0.326,0.180,0.110,��쐼,4.5,��
2017/07/23,00:40,0.363,0.219,0.367,0.343,0.322,0.179,0.108,��쐼,5.1,��
2017/07/23,00:50,0.358,0.220,0.364,0.340,0.322,0.179,0.109,��쐼,4.9,��
2017/07/23,01:00,0.360,0.219,0.370,0.346,0.326,0.178,0.109,��쐼,5.3,��
2017/07/23,01:10,0.363,0.219,0.368,0.344,0.324,0.180,0.109,��쐼,4.9,��
2017/07/23,01:20,0.360,0.220,0.365,0.341,0.321,0.178,0.109,��쐼,4.3,��
2017/07/23,01:30,0.358,0.219,0.366,0.344,0.326,0.178,0.110,��쐼,4.5,��
2017/07/23,01:40,0.363,0.221,0.368,0.345,0.324,0.179,0.109,��쐼,5.1,��
2017/07/23,01:50,0.362,0.221,0.366,0.343,0.320,0.179,0.110,��쐼,6.5,��
2017/07/23,02:00,0.357,0.219,0.366,0.342,0.324,0.178,0.110,��쐼,7.3,��
2017/07/23,02:10,0.362,0.220,0.369,0.346,0.327,0.179,0.109,��쐼,7.2,��
2017/07/23,02:20,0.363,0.221,0.367,0.343,0.324,0.179,0.109,��쐼,8.4,��
2017/07/23,02:30,0.359,0.220,0.366,0.341,0.321,0.178,0.110,��쐼,8.1,��
2017/07/23,02:40,0.361,0.219,0.370,0.346,0.326,0.179,0.109,��,7.7,��
2017/07/23,02:50,0.364,0.220,0.368,0.343,0.323,0.178,0.110,��,9.3,��
2017/07/23,03:00,0.358,0.219,0.365,0.341,0.321,0.179,0.109,��쐼,9.5,��
2017/07/23,03:10,0.359,0.219,0.367,0.344,0.323,0.177,0.109,��쐼,8.9,��
2017/07/23,03:20,0.362,0.221,0.368,0.344,0.324,0.179,0.109,��쐼,9.5,��
2017/07/23,03:30,0.358,0.218,0.366,0.341,0.322,0.178,0.108,��쐼,9.7,��
2017/07/23,03:40,0.357,0.218,0.364,0.342,0.321,0.177,0.109,��쐼,8.6,��
2017/07/23,03:50,0.363,0.220,0.369,0.345,0.324,0.178,0.110,��쐼,8.1,��
2017/07/23,04:00,0.360,0.218,0.368,0.344,0.323,0.178,0.110,��,7.5,��
2017/07/23,04:10,0.360,0.218,0.365,0.341,0.322,0.178,0.110,��쐼,8.4,�L
2017/07/23,04:20,0.365,0.221,0.368,0.344,0.323,0.179,0.110,��쐼,7.8,��
2017/07/23,04:30,0.360,0.219,0.368,0.345,0.324,0.180,0.110,��쐼,7.9,��
2017/07/23,04:40,0.358,0.217,0.366,0.341,0.321,0.178,0.110,��쐼,8.0,��
2017/07/23,04:50,0.363,0.220,0.364,0.344,0.323,0.177,0.109,��쐼,7.9,��
2017/07/23,05:00,0.360,0.219,0.370,0.344,0.326,0.180,0.109,��쐼,7.1,��
2017/07/23,05:10,0.358,0.219,0.366,0.343,0.324,0.179,0.110,��쐼,7.5,��
2017/07/23,05:20,0.361,0.220,0.364,0.344,0.322,0.177,0.110,��,6.7,��
2017/07/23,05:30,0.360,0.218,0.369,0.346,0.325,0.178,0.110,��쐼,7.8,��
2017/07/23,05:40,0.359,0.218,0.367,0.343,0.323,0.179,0.109,��쐼,7.8,��
2017/07/23,05:50,0.362,0.219,0.363,0.345,0.320,0.177,0.109,��쐼,6.7,��
2017/07/23,06:00,0.358,0.218,0.364,0.344,0.323,0.178,0.109,��쐼,6.7,��
2017/07/23,06:10,0.360,0.218,0.369,0.343,0.324,0.177,0.110,��쐼,7.4,��
2017/07/23,06:20,0.362,0.219,0.365,0.342,0.322,0.177,0.108,��쐼,7.0,��
2017/07/23,06:30,0.358,0.219,0.364,0.346,0.320,0.178,0.109,��,8.0,��
2017/07/23,06:40,0.360,0.216,0.367,0.342,0.324,0.179,0.109,��쐼,9.5,��
2017/07/23,06:50,0.361,0.220,0.369,0.342,0.324,0.179,0.109,��쐼,10.4,��
2017/07/23,07:00,0.357,0.220,0.364,0.346,0.323,0.177,0.109,��쐼,11.6,�L
2017/07/23,07:10,0.362,0.218,0.367,0.345,0.322,0.178,0.111,��쐼,11.9,�L
2017/07/23,07:20,0.364,0.221,0.370,0.341,0.328,0.181,0.111,��쐼,12.2,�L
2017/07/23,07:30,0.360,0.222,0.368,0.345,0.325,0.180,0.110,��쐼,12.5,�L
2017/07/23,07:40,0.361,0.220,0.366,0.348,0.323,0.180,0.112,��쐼,13.2,��
2017/07/23,07:50,0.364,0.220,0.370,0.345,0.326,0.181,0.111,��쐼,12.9,�L
2017/07/23,08:00,0.360,0.222,0.371,0.345,0.327,0.182,0.112,��쐼,12.2,�L
2017/07/23,08:10,0.363,0.223,0.368,0.349,0.326,0.181,0.113,��쐼,10.3,�L
2017/07/23,08:20,0.367,0.221,0.369,0.346,0.323,0.182,0.114,��쐼,9.8,�L
2017/07/23,08:30,0.363,0.224,0.372,0.345,0.327,0.184,0.113,��쐼,10.1,�L
2017/07/23,08:40,0.361,0.223,0.370,0.345,0.327,0.183,0.113,��쐼,10.4,��
2017/07/23,08:50,0.363,0.221,0.365,0.348,0.325,0.181,0.113,��쐼,10.3,��
2017/07/23,09:00,0.365,0.220,0.369,0.346,0.321,0.181,0.112,��쐼,9.2,��
2017/07/23,09:10,0.360,0.219,0.372,0.343,0.324,0.180,0.111,��쐼,10.1,��
2017/07/23,09:20,0.358,0.219,0.369,0.342,0.327,0.181,0.110,��쐼,10.9,��
2017/07/23,09:30,0.358,0.218,0.366,0.344,0.326,0.181,0.110,��쐼,11.0,��
2017/07/23,09:40,0.357,0.219,0.364,0.348,0.324,0.178,0.109,��쐼,11.2,��
2017/07/23,09:50,0.357,0.219,0.364,0.345,0.323,0.179,0.109,��쐼,9.3,��
2017/07/23,10:00,0.359,0.220,0.366,0.343,0.323,0.178,0.109,��,8.0,��
2017/07/23,10:10,0.360,0.220,0.365,0.344,0.322,0.178,0.110,��쐼,7.8,��
2017/07/23,10:20,0.360,0.219,0.365,0.343,0.323,0.178,0.108,��,7.8,�L
2017/07/23,10:30,0.359,0.219,0.364,0.344,0.322,0.178,0.109,��쐼,8.2,�L
2017/07/23,10:40,0.360,0.221,0.366,0.344,0.322,0.179,0.108,��쐼,8.2,�L
2017/07/23,10:50,0.361,0.219,0.366,0.343,0.323,0.180,0.110,��쐼,8.3,�L
2017/07/23,11:00,0.363,0.221,0.373,0.344,0.323,0.181,0.109,��,9.3,�L
2017/07/23,11:10,0.368,0.220,0.372,0.342,0.322,0.180,0.112,��,10.1,�L
2017/07/23,11:20,0.365,0.220,0.370,0.344,0.322,0.180,0.111,��쐼,8.7,��
2017/07/23,11:30,0.363,0.220,0.366,0.348,0.322,0.181,0.111,��쐼,7.3,�L
2017/07/23,11:40,0.360,0.221,0.367,0.348,0.323,0.181,0.110,��쐼,7.3,�L
2017/07/23,11:50,0.359,0.220,0.366,0.346,0.329,0.181,0.110,��쐼,8.1,�L
2017/07/23,12:00,0.365,0.221,0.371,0.344,0.327,0.181,0.111,��쐼,8.9,�L
2017/07/23,12:10,0.367,0.224,0.372,0.344,0.328,0.182,0.113,��쐼,8.6,�L
2017/07/23,12:20,0.364,0.223,0.370,0.345,0.325,0.184,0.114,��쐼,9.8,�L
2017/07/23,12:30,0.362,0.223,0.369,0.352,0.325,0.185,0.115,��쐼,11.5,�L
2017/07/23,12:40,0.369,0.224,0.371,0.351,0.330,0.185,0.114,��쐼,11.1,�L
2017/07/23,12:50,0.369,0.225,0.375,0.347,0.329,0.184,0.116,��쐼,10.0,�L
2017/07/23,13:00,0.365,0.226,0.371,0.349,0.327,0.184,0.115,��쐼,10.5,�L
2017/07/23,13:10,0.363,0.224,0.368,0.353,0.323,0.184,0.114,��쐼,10.3,�L
2017/07/23,13:20,0.365,0.222,0.370,0.348,0.328,0.186,0.114,��,10.9,�L
2017/07/23,13:30,0.366,0.221,0.374,0.345,0.328,0.183,0.114,��쐼,11.6,��
2017/07/23,13:40,0.363,0.221,0.369,0.342,0.325,0.181,0.114,��쐼,10.1,�L
2017/07/23,13:50,0.362,0.221,0.367,0.343,0.323,0.181,0.112,��쐼,8.3,��
2017/07/23,14:00,0.361,0.220,0.364,0.347,0.324,0.181,0.111,��쐼,7.5,��
2017/07/23,14:10,0.359,0.219,0.365,0.346,0.324,0.181,0.110,��쐼,6.5,��
2017/07/23,14:20,0.357,0.219,0.366,0.345,0.321,0.180,0.110,��쐼,7.3,��
2017/07/23,14:30,0.357,0.218,0.367,0.343,0.322,0.180,0.110,��쐼,6.3,�L
2017/07/23,14:40,0.363,0.220,0.369,0.344,0.322,0.181,0.109,��쐼,6.2,�L
2017/07/23,14:50,0.365,0.220,0.369,0.343,0.326,0.185,0.112,��쐼,6.2,�L
2017/07/23,15:00,0.363,0.224,0.369,0.345,0.330,0.185,0.114,��쐼,7.9,�L
2017/07/23,15:10,0.363,0.225,0.366,0.350,0.328,0.184,0.114,��쐼,9.2,�L
2017/07/23,15:20,0.364,0.224,0.371,0.347,0.326,0.183,0.114,��쐼,9.4,�L
2017/07/23,15:30,0.367,0.223,0.372,0.345,0.323,0.182,0.112,��,8.4,�L
2017/07/23,15:40,0.366,0.222,0.368,0.344,0.329,0.183,0.113,��,9.0,�L
2017/07/23,15:50,0.362,0.225,0.370,0.350,0.329,0.182,0.114,��쐼,8.4,�L
2017/07/23,16:00,0.365,0.226,0.373,0.352,0.327,0.186,0.116,��쐼,10.1,�L
2017/07/23,16:10,0.369,0.223,0.373,0.347,0.326,0.184,0.116,��쐼,9.9,�L
2017/07/23,16:20,0.365,0.223,0.371,0.347,0.331,0.187,0.116,��쐼,10.1,�L
2017/07/23,16:30,0.363,0.225,0.369,0.350,0.329,0.187,0.116,��쐼,10.4,�L
2017/07/23,16:40,0.364,0.225,0.372,0.347,0.326,0.184,0.114,��쐼,8.6,�L
2017/07/23,16:50,0.369,0.225,0.374,0.345,0.327,0.184,0.114,��쐼,7.3,�L
2017/07/23,17:00,0.367,0.226,0.371,0.348,0.331,0.187,0.117,��쐼,8.0,�L
2017/07/23,17:10,0.366,0.229,0.371,0.352,0.328,0.187,0.117,��쐼,7.8,�L
2017/07/23,17:20,0.372,0.230,0.377,0.349,0.327,0.186,0.116,��쐼,7.7,�L
2017/07/23,17:30,0.373,0.231,0.376,0.349,0.330,0.188,0.120,��쐼,7.4,�L
2017/07/23,17:40,0.370,0.232,0.372,0.352,0.332,0.190,0.120,��,7.4,�L
2017/07/23,17:50,0.373,0.233,0.374,0.353,0.327,0.187,0.118,��,8.0,�L
2017/07/23,18:00,0.371,0.229,0.372,0.348,0.329,0.185,0.117,��,8.2,�L
2017/07/23,18:10,0.365,0.228,0.370,0.349,0.330,0.185,0.117,��쐼,7.0,�L
2017/07/23,18:20,0.367,0.230,0.370,0.351,0.327,0.187,0.117,��쐼,7.2,�L
2017/07/23,18:30,0.369,0.227,0.372,0.347,0.326,0.186,0.117,��쐼,7.5,�L
2017/07/23,18:40,0.363,0.224,0.368,0.344,0.330,0.185,0.117,��쐼,7.4,�L
2017/07/23,18:50,0.366,0.228,0.368,0.349,0.326,0.185,0.116,��쐼,6.1,��
2017/07/23,19:00,0.364,0.225,0.370,0.346,0.322,0.183,0.115,��쐼,6.4,�L
2017/07/23,19:10,0.360,0.221,0.367,0.341,0.325,0.181,0.114,��쐼,7.3,��
2017/07/23,19:20,0.359,0.222,0.363,0.343,0.326,0.182,0.112,��쐼,6.7,�L
2017/07/23,19:30,0.362,0.222,0.368,0.345,0.321,0.181,0.112,��쐼,6.3,�L
2017/07/23,19:40,0.359,0.220,0.367,0.343,0.324,0.180,0.112,��쐼,6.4,�L
2017/07/23,19:50,0.360,0.223,0.366,0.341,0.327,0.184,0.115,��,5.6,�L
2017/07/23,20:00,0.364,0.224,0.367,0.348,0.326,0.186,0.116,��쐼,6.4,�L
2017/07/23,20:10,0.359,0.221,0.369,0.346,0.324,0.184,0.115,��쐼,5.1,�L
2017/07/23,20:20,0.360,0.224,0.367,0.345,0.328,0.186,0.117,��쐼,5.6,�L
2017/07/23,20:30,0.366,0.227,0.365,0.347,0.332,0.188,0.121,��쐼,4.2,�L
2017/07/23,20:40,0.366,0.230,0.372,0.352,0.329,0.191,0.123,��쐼,3.9,�L
2017/07/23,20:50,0.367,0.231,0.371,0.349,0.330,0.192,0.124,��쐼,4.6,�L
2017/07/23,21:00,0.370,0.233,0.369,0.349,0.333,0.192,0.124,��쐼,6.5,�L
2017/07/23,21:10,0.366,0.230,0.369,0.350,0.330,0.190,0.123,��쐼,8.4,��
2017/07/23,21:20,0.364,0.227,0.371,0.348,0.326,0.187,0.119,��쐼,7.3,��
2017/07/23,21:30,0.365,0.227,0.366,0.342,0.328,0.186,0.117,��쐼,7.1,��
2017/07/23,21:40,0.359,0.223,0.364,0.345,0.328,0.183,0.116,��쐼,7.6,��
2017/07/23,21:50,0.358,0.221,0.366,0.343,0.323,0.182,0.113,��쐼,6.6,��
2017/07/23,22:00,0.360,0.223,0.364,0.340,0.322,0.181,0.112,��쐼,6.7,��
2017/07/23,22:10,0.356,0.220,0.359,0.338,0.325,0.179,0.113,��,7.0,��
2017/07/23,22:20,0.354,0.217,0.363,0.341,0.322,0.179,0.111,��쐼,6.9,��
2017/07/23,22:30,0.358,0.218,0.362,0.337,0.319,0.178,0.110,��,7.0,��
2017/07/23,22:40,0.355,0.219,0.358,0.336,0.323,0.179,0.109,��쐼,6.2,��
2017/07/23,22:50,0.351,0.216,0.359,0.340,0.321,0.178,0.108,��쐼,7.0,��
2017/07/23,23:00,0.357,0.217,0.362,0.338,0.318,0.176,0.109,��쐼,5.5,��
2017/07/23,23:10,0.355,0.217,0.360,0.337,0.320,0.177,0.110,��쐼,4.5,�L
2017/07/23,23:20,0.353,0.217,0.360,0.343,0.327,0.181,0.113,�쐼,4.3,�L
2017/07/23,23:30,0.360,0.221,0.369,0.343,0.326,0.183,0.115,��쐼,3.6,�L
2017/07/23,23:40,0.361,0.224,0.365,0.340,0.323,0.183,0.115,��쐼,3.7,�L
2017/07/23,23:50,0.359,0.226,0.366,0.346,0.330,0.185,0.114,��쐼,3.3,�L
